Wetbulb
50.87 51.62 50.38 50.65 51.38 50.93 50.07 50.15 50.37 48.86 48.81 49.39 50.16 49.75 50.38 51.28 51.49 50.22 50.39 52.65 51.18 52.22 52.64 52.90 52.67 53.20 53.52 52.31 51.61 51.41 50.76 48.92 46.88 47.69 48.39 49.38 50.33 51.02 51.95 52.31 53.70 53.75 54.16
49.40 51.66 50.36 50.14 51.00 49.83 50.08 50.21 50.36 50.41 48.52 49.41 50.26 48.91 50.39 53.99 52.62 52.25 52.72 51.58 52.85 52.10 50.69 50.93 51.51 53.07 51.80 52.07 51.76 50.59 50.15 49.09 48.02 46.24 46.97 48.28 48.31 48.06 47.45 49.61 52.64 55.02 53.46
52.33 51.46 50.51 49.74 49.71 49.64 49.67 51.06 51.06 52.55 52.43 50.36 49.23 48.96 50.02 49.93 51.99 51.95 53.19 52.67 50.31 51.07 50.32 50.51 49.58 49.72 49.26 49.03 48.70 48.82 48.80 49.74 47.85 47.06 46.74 47.51 48.54 49.56 49.60 50.26 51.50 51.59 54.05
51.74 52.10 51.15 52.53 49.57 49.62 49.81 52.88 52.50 52.61 52.73 52.68 52.40 51.59 48.87 47.92 50.28 50.22 51.95 51.32 49.80 49.11 48.72 49.32 48.03 47.89 47.67 48.37 49.39 49.06 49.14 48.74 50.19 46.75 46.11 46.58 48.19 48.95 49.35 49.44 48.39 53.14 50.99
52.33 51.78 51.38 53.10 51.13 52.11 51.32 53.16 53.71 51.66 52.65 53.48 50.89 48.42 46.26 47.17 47.77 48.31 48.65 50.08 49.78 48.60 49.48 49.32 48.87 52.43 54.51 51.66 47.52 46.74 47.98 47.56 47.09 46.65 45.93 46.13 46.59 47.11 47.11 47.63 48.10 47.45 48.09
51.96 52.11 53.37 53.62 53.43 53.00 49.63 50.51 52.86 51.34 51.37 53.48 52.96 49.31 44.96 47.63 47.07 48.10 48.63 47.80 52.92 53.23 51.76 49.77 49.55 53.69 53.33 53.02 52.76 51.95 49.29 47.34 46.40 46.93 46.36 45.86 46.33 47.34 47.79 47.38 45.99 45.10 44.36
50.69 52.54 53.64 51.43 52.64 53.04 50.41 49.11 50.81 49.44 49.68 48.96 49.68 50.51 45.94 44.76 45.87 45.21 46.70 46.54 49.24 52.66 52.59 51.40 52.21 52.60 49.53 47.27 50.51 52.37 51.97 51.20 51.32 48.26 46.28 47.09 47.16 48.52 46.81 43.45 43.09 44.32 44.92
51.60 52.73 53.21 51.83 52.30 52.57 52.30 49.27 48.83 48.80 49.32 48.77 51.82 51.21 46.72 45.36 45.33 43.67 45.05 46.89 48.08 49.10 50.49 50.62 49.39 49.51 45.92 45.39 49.78 49.92 49.94 49.96 49.06 49.95 48.34 48.49 49.09 48.30 45.45 44.30 42.73 43.51 43.92
50.66 52.37 53.39 53.27 49.54 50.08 51.80 50.13 48.91 48.07 48.07 50.11 52.59 51.03 50.79 46.14 45.08 43.62 43.12 42.54 48.12 49.39 51.93 53.40 50.69 49.52 45.37 45.04 48.94 47.12 46.67 46.60 50.21 50.52 49.72 48.60 47.20 46.02 45.64 44.33 43.19 40.13 39.54
52.08 52.89 54.29 53.87 52.79 50.86 51.59 50.17 51.53 50.23 49.72 50.51 50.29 49.77 49.67 48.83 47.05 43.81 42.73 42.52 43.83 46.16 50.05 49.11 50.97 48.50 44.20 44.03 44.93 44.48 40.48 40.75 42.11 42.24 43.90 45.02 47.17 46.53 47.64 45.97 44.69 40.43 39.63
52.50 53.38 53.16 53.74 51.83 50.44 49.00 51.61 52.97 52.16 53.09 49.58 49.41 48.55 48.52 48.99 47.89 45.16 43.02 42.21 43.18 43.15 47.06 47.96 45.14 44.21 42.95 42.40 42.64 42.81 43.52 41.20 41.72 40.21 42.84 44.67 46.11 47.29 46.40 46.33 46.70 42.46 40.76
52.50 53.18 52.43 53.23 53.37 52.81 50.49 51.44 50.47 52.92 52.56 49.75 48.39 48.67 49.80 49.72 47.29 46.63 43.71 42.33 43.67 41.42 42.42 46.25 45.67 43.30 41.86 41.89 41.38 41.63 41.49 42.66 39.66 41.34 41.76 43.37 44.09 47.50 48.96 48.75 47.26 47.43 44.10
52.85 50.96 52.55 53.56 53.23 52.76 51.83 51.92 49.54 48.35 50.10 50.84 51.21 51.28 48.86 49.54 48.71 46.75 45.46 43.02 42.81 40.43 41.96 43.70 44.76 42.85 41.90 41.48 41.80 41.71 41.77 41.41 40.54 42.25 39.28 41.77 43.18 44.62 45.71 47.89 48.39 47.16 45.82
53.45 52.84 52.66 52.51 50.66 52.86 52.64 51.22 48.92 48.24 46.36 46.41 48.41 48.08 47.89 44.33 47.07 47.93 47.30 44.69 43.21 43.50 44.18 43.38 43.98 43.64 43.39 43.77 43.87 45.14 45.69 43.74 42.35 41.95 40.89 41.23 42.36 41.82 42.49 44.25 44.30 44.55 43.40
52.93 53.00 52.77 51.33 49.83 52.16 53.07 52.55 51.11 49.53 48.27 48.23 48.01 46.01 45.09 43.64 46.35 47.25 45.17 44.57 43.10 43.21 40.13 38.32 39.02 39.98 41.13 42.57 44.37 45.99 46.24 45.10 43.80 42.96 42.40 41.50 40.20 41.43 42.84 43.07 42.21 41.22 41.06
50.85 51.01 51.44 52.04 49.20 51.78 53.01 53.06 49.01 45.99 45.38 43.62 43.64 45.43 46.37 43.45 41.74 41.10 41.91 41.08 40.73 38.74 37.64 36.80 37.23 37.58 38.57 39.78 40.87 42.10 44.96 46.45 44.94 44.14 41.39 39.46 40.93 41.98 41.75 41.36 40.45 39.92 40.06
48.75 50.39 50.88 51.39 51.91 49.48 50.32 52.07 50.91 50.82 45.63 44.61 42.87 40.92 41.35 43.52 40.66 39.33 38.57 38.11 37.10 37.49 36.59 36.09 37.04 37.91 39.30 41.00 41.87 43.10 42.88 43.62 42.45 41.11 39.79 40.21 41.57 42.44 41.39 41.61 41.14 41.41 40.50
49.32 48.09 50.35 50.97 49.64 50.50 49.02 49.71 52.55 51.66 51.31 49.43 46.70 45.41 43.20 39.85 39.19 38.57 37.88 37.21 36.53 36.40 36.39 37.01 37.80 39.34 40.48 41.62 42.12 42.98 41.84 40.57 40.34 40.76 40.54 40.46 40.72 41.91 41.64 40.88 40.74 40.48 38.91
47.52 48.55 50.36 49.52 48.92 47.94 49.36 51.24 50.18 51.59 51.09 49.37 47.68 46.42 42.33 38.35 37.82 38.22 37.00 39.13 38.73 38.49 38.77 39.35 39.88 40.45 41.53 42.33 42.86 42.61 41.40 40.86 40.77 39.03 38.60 38.89 39.68 41.59 40.21 40.44 39.89 38.24 38.06
46.79 45.48 44.30 48.92 48.12 48.07 49.07 50.55 51.65 50.47 51.78 51.39 50.26 48.03 45.95 40.00 39.84 38.64 37.16 37.55 37.71 38.89 39.73 40.84 42.09 42.27 43.20 43.30 43.05 42.22 41.41 40.24 39.89 38.99 38.94 38.86 40.37 40.93 39.54 39.92 39.86 39.32 38.08
44.30 44.18 43.27 45.94 48.10 47.65 48.50 50.31 50.85 51.28 51.39 51.48 51.38 50.05 39.89 46.18 47.71 46.37 44.45 41.00 40.70 41.36 42.26 41.96 42.62 42.31 43.16 42.60 42.08 42.15 41.44 40.93 40.02 39.46 39.32 39.10 39.90 39.56 39.86 40.17 39.37 39.27 38.71
43.39 42.32 42.70 43.46 46.29 48.30 47.76 49.25 50.52 50.86 51.22 51.62 51.97 51.58 38.88 43.77 47.67 47.86 46.81 47.42 46.53 45.02 45.09 44.46 44.17 44.03 44.51 42.92 42.49 42.41 41.04 40.67 40.37 39.95 39.59 38.84 38.55 38.50 39.11 39.57 38.94 38.74 38.61
43.94 42.38 42.02 44.49 46.01 44.96 47.20 48.26 47.70 47.22 48.14 51.12 51.65 51.50 50.74 48.36 49.10 49.84 48.75 49.89 48.95 47.14 46.28 45.16 45.40 44.28 43.93 44.00 43.10 43.06 42.88 40.89 40.55 39.80 38.73 38.25 38.13 38.32 38.28 37.68 37.99 37.39 37.51
41.82 45.09 45.85 44.37 43.72 42.47 43.55 44.94 45.08 42.67 44.78 46.43 48.49 51.76 51.94 50.24 50.16 51.09 51.03 50.59 50.17 50.04 50.80 46.98 46.77 47.58 47.03 45.15 43.10 42.26 42.16 41.75 41.27 41.50 40.20 38.52 37.79 37.43 37.36 37.55 38.23 38.76 38.91
47.24 45.30 44.10 42.85 41.85 40.91 40.91 42.26 42.75 44.09 44.81 44.90 45.24 48.15 50.58 52.30 51.93 52.30 51.64 52.70 51.25 49.75 51.65 51.54 49.45 48.97 46.43 46.52 43.82 43.65 39.07 35.71 40.40 36.81 38.72 38.58 38.33 37.53 36.23 36.40 37.17 37.64 38.27
46.20 44.00 41.93 41.20 40.53 40.52 41.11 41.45 42.00 42.73 43.02 45.02 46.70 48.31 49.36 49.98 50.42 51.46 52.01 52.58 52.20 50.81 50.98 50.45 49.84 52.03 50.50 47.69 46.87 40.94 35.88 35.26 37.10 35.25 39.11 38.02 37.03 35.97 35.95 36.55 37.63 37.13 38.12
MSLP
1023.57 1023.43 1023.34 1023.21 1022.89 1022.70 1022.46 1022.18 1021.83 1021.67 1021.27 1021.06 1020.81 1020.61 1020.35 1020.06 1019.76 1019.50 1019.17 1018.89 1018.65 1018.46 1018.41 1018.07 1017.71 1017.36 1017.43 1017.53 1017.47 1017.45 1017.87 1018.12 1018.87 1019.38 1019.32 1019.53 1019.87 1020.06 1020.05 1020.26 1020.40 1020.67 1020.81
1023.34 1023.20 1023.13 1022.98 1022.66 1022.65 1022.26 1021.99 1021.48 1021.37 1020.98 1020.91 1020.79 1020.66 1020.45 1020.19 1019.99 1019.72 1019.45 1019.17 1018.91 1018.88 1018.68 1018.41 1018.15 1017.82 1017.74 1017.79 1017.93 1018.07 1018.23 1018.40 1018.77 1019.67 1019.82 1019.94 1020.00 1020.18 1020.31 1020.44 1020.46 1020.41 1020.57
1023.02 1022.97 1022.89 1022.74 1022.45 1022.37 1022.02 1021.68 1021.41 1021.30 1021.01 1020.80 1020.72 1020.63 1020.53 1020.42 1020.16 1019.74 1019.56 1019.38 1019.34 1019.23 1019.07 1018.88 1018.90 1018.51 1018.69 1018.59 1018.53 1018.63 1018.78 1018.96 1019.43 1019.83 1020.31 1020.29 1020.27 1020.31 1020.49 1020.40 1020.34 1020.30 1020.14
1022.65 1022.57 1022.53 1022.39 1022.14 1021.93 1021.86 1021.52 1021.17 1021.07 1020.83 1020.79 1020.82 1020.69 1020.56 1020.49 1020.37 1019.99 1019.80 1019.58 1019.54 1019.39 1019.26 1019.13 1019.07 1019.07 1019.15 1019.10 1019.08 1019.13 1019.03 1019.32 1019.52 1019.92 1020.35 1020.48 1020.45 1020.38 1020.42 1020.58 1020.55 1020.22 1020.08
1022.43 1022.17 1022.00 1021.79 1021.65 1021.47 1021.45 1021.30 1021.10 1020.90 1020.72 1020.67 1020.81 1020.79 1020.71 1020.56 1020.40 1020.30 1020.17 1019.98 1019.90 1019.77 1019.51 1019.36 1019.23 1019.15 1019.06 1019.09 1019.21 1019.42 1019.43 1019.65 1019.84 1020.07 1020.46 1020.53 1020.54 1020.53 1020.61 1020.59 1020.58 1020.46 1020.05
1022.02 1021.90 1021.62 1021.36 1021.20 1021.07 1021.13 1021.03 1020.92 1020.82 1020.73 1020.61 1020.57 1020.67 1020.76 1020.57 1020.42 1020.35 1020.37 1020.19 1019.98 1019.91 1019.78 1019.63 1019.43 1019.33 1019.28 1019.33 1019.34 1019.34 1019.35 1019.63 1019.88 1020.20 1020.47 1020.60 1020.52 1020.40 1020.50 1020.60 1020.71 1020.87 1020.67
1021.72 1021.55 1021.38 1021.11 1020.98 1020.83 1020.72 1020.81 1020.81 1020.80 1020.63 1020.69 1020.57 1020.64 1020.73 1020.55 1020.48 1020.41 1020.31 1020.15 1019.97 1019.78 1019.72 1019.71 1019.67 1019.67 1019.63 1019.57 1019.48 1019.42 1019.33 1019.45 1019.57 1019.84 1020.16 1020.24 1020.24 1020.17 1020.34 1020.59 1020.72 1020.80 1020.73
1021.28 1021.12 1020.94 1020.87 1020.75 1020.68 1020.62 1020.63 1020.69 1020.70 1020.63 1020.50 1020.47 1020.53 1020.74 1020.50 1020.39 1020.39 1020.30 1020.14 1019.89 1019.66 1019.50 1019.53 1019.68 1019.64 1019.70 1019.65 1019.61 1019.49 1019.50 1019.42 1019.42 1019.54 1019.74 1019.79 1019.85 1019.94 1020.15 1020.38 1020.54 1020.60 1020.44
1020.88 1020.71 1020.55 1020.46 1020.57 1020.46 1020.43 1020.47 1020.43 1020.48 1020.44 1020.28 1020.15 1020.35 1020.41 1020.30 1020.18 1020.26 1020.26 1020.20 1019.99 1019.67 1019.50 1019.35 1019.42 1019.59 1019.60 1019.66 1019.77 1019.84 1019.82 1019.54 1019.20 1019.33 1019.38 1019.43 1019.53 1019.68 1019.82 1020.25 1020.63 1020.72 1020.78
1020.44 1020.20 1020.09 1020.06 1020.14 1020.31 1020.16 1020.12 1020.01 1020.00 1019.97 1019.96 1019.88 1019.91 1020.04 1020.03 1020.04 1020.03 1020.15 1020.20 1020.20 1019.89 1019.46 1019.35 1019.30 1019.55 1019.65 1019.77 1019.91 1020.15 1020.21 1020.03 1019.75 1019.56 1019.46 1019.32 1019.28 1019.38 1019.53 1019.64 1020.03 1020.54 1020.78
1019.98 1019.84 1019.73 1019.64 1019.71 1019.73 1019.70 1019.69 1019.55 1019.65 1019.51 1019.67 1019.62 1019.42 1019.49 1019.42 1019.51 1019.65 1019.83 1019.95 1020.07 1020.04 1019.86 1019.71 1019.63 1019.63 1019.71 1019.80 1019.90 1020.08 1020.11 1019.92 1019.85 1019.81 1019.57 1019.29 1019.06 1019.12 1019.19 1019.28 1019.43 1019.77 1020.08
1019.39 1019.36 1019.46 1019.14 1019.18 1019.09 1019.22 1019.26 1019.31 1019.33 1019.34 1019.36 1019.51 1019.31 1018.91 1018.78 1018.88 1019.04 1019.27 1019.43 1019.66 1019.90 1019.85 1019.63 1019.53 1019.48 1019.59 1019.72 1019.76 1019.74 1019.84 1019.85 1019.88 1019.92 1019.82 1019.41 1019.20 1019.06 1018.90 1018.75 1018.86 1018.96 1019.01
1019.11 1018.94 1018.87 1018.76 1018.54 1018.57 1018.76 1018.86 1019.12 1019.21 1019.07 1018.95 1019.02 1018.80 1018.43 1018.17 1018.13 1018.31 1018.55 1018.88 1019.24 1019.40 1019.34 1019.18 1019.22 1019.28 1019.32 1019.41 1019.39 1019.40 1019.51 1019.73 1019.91 1020.04 1019.91 1019.62 1019.13 1018.80 1018.61 1018.62 1018.58 1018.63 1018.68
1019.01 1018.98 1018.54 1018.47 1018.24 1018.13 1018.17 1018.41 1018.65 1018.66 1018.70 1018.69 1018.72 1018.59 1018.21 1017.93 1017.88 1017.88 1018.08 1018.40 1018.85 1018.99 1019.02 1019.06 1019.06 1018.99 1018.97 1019.03 1019.14 1019.01 1019.07 1019.20 1019.39 1019.56 1019.56 1019.17 1018.92 1018.70 1018.62 1018.41 1018.45 1018.44 1018.83
1018.78 1019.03 1018.70 1018.30 1018.10 1017.90 1017.76 1017.82 1017.99 1017.71 1017.82 1017.85 1017.91 1018.08 1018.08 1017.87 1017.39 1017.13 1017.57 1018.02 1018.30 1018.54 1018.95 1019.10 1019.14 1019.04 1018.89 1018.82 1018.70 1018.57 1018.48 1018.55 1018.81 1018.81 1018.99 1019.01 1018.86 1018.54 1018.31 1018.20 1018.26 1018.49 1018.70
1019.06 1019.04 1019.12 1018.65 1018.16 1017.78 1017.55 1017.40 1017.38 1017.19 1016.97 1016.98 1016.97 1017.21 1017.02 1017.04 1016.84 1016.89 1016.98 1017.45 1017.91 1018.36 1018.87 1018.98 1018.93 1018.81 1018.74 1018.55 1018.41 1018.15 1017.83 1017.70 1017.86 1018.16 1018.35 1018.51 1018.59 1018.35 1018.28 1018.18 1018.25 1018.52 1018.54
1019.71 1019.52 1019.06 1018.55 1018.36 1018.16 1017.67 1017.45 1017.32 1016.54 1016.42 1016.33 1016.30 1016.39 1016.43 1016.35 1016.40 1016.54 1016.84 1017.11 1017.55 1018.17 1018.52 1018.57 1018.59 1018.52 1018.29 1018.10 1018.00 1017.91 1017.55 1017.09 1017.07 1017.38 1017.82 1018.10 1017.96 1017.93 1018.04 1018.07 1018.09 1018.11 1018.03
1019.64 1019.30 1018.95 1018.64 1018.60 1018.27 1017.61 1017.29 1016.96 1016.71 1016.62 1016.43 1015.90 1015.96 1015.73 1015.77 1016.11 1016.05 1016.61 1017.46 1018.20 1018.08 1017.92 1017.88 1017.89 1017.82 1017.71 1017.58 1017.48 1017.43 1017.00 1017.16 1017.17 1017.43 1017.56 1017.56 1017.63 1017.60 1017.65 1017.81 1017.88 1017.93 1017.95
1019.73 1019.25 1018.77 1018.49 1018.27 1017.89 1017.52 1017.00 1016.67 1016.30 1016.16 1016.23 1016.10 1015.61 1015.39 1015.70 1015.88 1016.27 1016.70 1016.64 1017.05 1017.09 1017.15 1017.12 1017.03 1016.96 1016.83 1016.66 1016.50 1016.43 1016.60 1016.89 1016.79 1017.11 1017.26 1017.34 1017.36 1017.47 1017.48 1017.55 1017.58 1017.51 1017.64
1019.62 1019.12 1018.77 1018.25 1017.81 1017.68 1017.42 1016.90 1016.51 1015.98 1015.95 1015.62 1015.24 1015.51 1015.55 1015.92 1015.79 1016.00 1016.16 1016.33 1016.47 1016.34 1016.27 1016.28 1015.99 1016.03 1016.03 1015.97 1015.90 1015.94 1016.21 1016.45 1016.55 1016.64 1016.66 1016.77 1016.90 1017.05 1017.20 1017.24 1017.29 1017.35 1017.37
1019.69 1019.09 1018.56 1018.21 1017.76 1017.45 1017.13 1016.70 1016.22 1015.80 1015.52 1015.24 1015.12 1014.89 1014.73 1015.13 1014.94 1014.86 1014.92 1015.10 1015.26 1015.21 1015.12 1015.13 1015.05 1015.04 1015.03 1015.11 1015.18 1015.61 1015.68 1015.66 1015.78 1015.92 1016.14 1016.27 1016.46 1016.76 1016.71 1016.75 1016.91 1017.01 1017.01
1019.51 1019.08 1018.55 1018.04 1017.45 1017.18 1016.92 1016.63 1016.15 1015.64 1015.39 1015.08 1015.00 1014.97 1014.67 1014.56 1014.26 1013.91 1013.92 1013.99 1013.96 1013.95 1013.92 1014.05 1014.05 1013.97 1014.04 1014.20 1014.50 1014.71 1015.01 1015.21 1015.24 1015.38 1015.61 1015.85 1016.06 1016.23 1016.16 1016.24 1016.48 1016.57 1016.67
1019.30 1018.88 1018.48 1018.07 1017.69 1017.38 1017.04 1016.67 1016.31 1016.02 1015.65 1015.08 1014.64 1014.24 1014.13 1013.86 1013.50 1013.14 1013.03 1013.16 1013.13 1012.83 1012.86 1013.04 1012.98 1013.11 1013.03 1012.94 1013.42 1013.28 1013.75 1014.10 1014.24 1014.58 1015.08 1015.47 1015.68 1015.76 1015.86 1016.08 1016.10 1016.22 1016.36
1019.39 1018.94 1018.57 1018.38 1018.07 1017.83 1017.33 1016.72 1016.38 1016.05 1015.75 1015.24 1014.50 1013.89 1013.39 1013.25 1013.16 1012.76 1012.38 1012.44 1012.61 1012.53 1012.28 1011.91 1011.91 1011.97 1012.01 1011.93 1012.47 1012.33 1012.57 1012.93 1013.30 1013.68 1014.08 1014.60 1014.99 1015.24 1015.49 1015.69 1015.74 1015.74 1015.85
1019.64 1019.37 1018.97 1018.95 1018.74 1018.31 1017.75 1017.20 1016.69 1016.10 1015.61 1015.07 1014.35 1013.84 1013.17 1012.73 1012.62 1012.26 1012.05 1011.84 1011.60 1011.97 1011.78 1011.23 1011.14 1010.93 1011.21 1011.24 1011.52 1011.74 1011.96 1012.36 1012.59 1012.99 1013.43 1013.88 1014.26 1014.56 1014.89 1015.12 1015.26 1015.35 1015.41
1019.81 1019.72 1019.52 1019.29 1019.02 1018.61 1018.07 1017.44 1016.87 1016.26 1015.56 1014.74 1014.12 1013.57 1013.09 1012.58 1012.30 1012.07 1011.74 1011.74 1011.27 1011.10 1011.17 1010.80 1010.79 1010.88 1010.55 1010.57 1010.75 1011.10 1011.30 1011.70 1012.05 1012.22 1012.63 1013.18 1013.58 1013.99 1014.32 1014.49 1014.62 1014.86 1014.94
Wind_Speed
3 2 2 4 3 3 2 3 2 3 5 5 4 5 5 6 6 5 6 6 5 5 4 3 6 5 4 1 2 3 3 3 5 2 2 1 2 3 1 3 3 4 5
3 1 2 4 4 4 3 4 4 4 3 4 4 4 4 5 5 6 5 6 6 6 5 7 7 5 7 5 4 4 3 4 5 5 3 3 2 1 3 3 3 5 5
3 2 3 4 4 5 6 5 4 5 4 3 3 4 5 4 5 5 5 5 5 5 3 5 5 7 6 4 5 5 3 3 3 4 2 1 0 1 1 2 3 4 4
5 4 4 5 5 6 5 5 3 4 4 3 4 5 3 3 4 5 6 6 4 4 4 4 5 6 5 5 5 5 4 4 3 3 1 1 1 0 1 2 3 2 3
6 4 5 6 5 4 4 5 4 2 4 3 1 1 2 2 2 5 5 6 5 4 3 3 3 3 6 5 3 3 4 3 2 3 2 1 0 1 2 1 1 2 3
4 5 6 6 5 6 4 4 3 3 3 3 1 3 2 1 4 5 3 3 4 3 3 3 2 2 4 4 3 2 4 4 2 2 1 2 2 2 2 1 1 2 3
5 5 5 5 4 5 5 4 5 4 2 2 2 4 4 3 4 5 5 3 3 4 2 2 3 3 4 3 4 3 3 3 3 4 3 3 2 4 3 1 1 2 3
5 4 5 6 5 4 2 2 3 3 4 3 4 5 5 5 7 5 4 4 3 4 4 2 4 2 1 2 3 5 5 2 4 3 4 3 3 2 3 4 4 2 2
6 5 5 5 5 4 4 3 3 3 3 4 4 4 6 7 9 7 2 2 3 5 3 3 5 3 2 1 4 2 3 3 3 5 5 8 7 7 5 3 1 2 2
6 6 4 4 5 6 4 5 3 4 5 3 5 4 7 7 9 8 6 1 2 3 4 3 6 5 5 3 2 3 0 3 3 4 4 4 4 6 8 5 4 2 1
6 5 6 5 6 7 5 3 3 5 5 5 5 5 6 7 7 9 9 4 3 2 2 2 2 6 6 3 2 2 4 1 2 3 4 4 2 4 4 5 6 4 3
6 6 7 6 5 4 5 4 4 4 5 5 4 6 5 7 10 10 11 10 7 4 4 2 4 6 7 7 3 7 6 2 2 3 3 4 3 1 4 5 6 6 4
7 7 6 7 5 5 5 5 3 4 4 4 4 5 5 4 5 12 12 11 9 4 4 7 7 8 8 6 9 9 4 2 1 2 2 3 3 3 3 2 4 5 6
7 9 6 5 6 5 3 4 4 4 4 4 4 4 4 3 4 4 5 4 6 5 5 5 6 7 6 5 4 5 4 4 5 4 3 3 3 1 2 3 2 2 1
6 7 8 5 6 5 5 5 5 6 6 5 5 4 3 4 6 7 7 5 5 4 3 1 2 2 3 3 3 5 4 4 5 3 3 3 3 2 1 0 1 1 2
4 5 6 6 5 4 3 4 8 11 11 11 12 6 4 10 9 9 12 11 10 10 2 2 3 3 4 4 4 5 3 5 4 4 4 3 3 1 1 1 1 2 3
3 4 4 4 6 5 4 3 5 6 5 9 10 10 13 11 11 10 9 10 10 8 3 4 4 4 5 5 4 4 4 4 5 4 4 5 4 2 3 2 1 1 1
5 7 4 3 5 5 3 4 4 4 3 5 8 5 5 7 11 13 12 8 2 3 4 4 5 5 5 5 4 4 3 3 2 4 4 4 3 2 2 2 1 1 2
5 4 4 3 4 5 5 3 4 4 4 5 4 5 4 3 4 6 7 4 5 5 5 5 5 5 5 5 5 4 5 5 5 4 3 3 3 2 2 3 2 4 4
7 9 7 6 4 4 4 4 4 3 5 5 3 4 1 1 2 5 6 4 4 5 5 6 5 5 5 5 4 5 5 5 5 5 5 4 4 3 3 4 3 3 3
5 7 10 5 5 4 5 5 4 5 3 3 6 7 7 5 5 5 5 6 7 7 7 6 6 5 5 5 5 5 6 5 5 5 4 4 3 3 4 4 3 4 3
7 7 7 6 5 4 4 4 5 5 5 3 4 7 7 4 5 4 4 5 6 7 7 7 7 6 6 6 7 6 6 6 5 5 4 4 4 4 3 2 2 3 3
7 8 6 4 5 6 4 4 5 6 8 7 5 6 4 4 4 4 3 5 6 5 5 6 7 5 5 6 6 7 9 7 7 6 6 5 5 4 3 3 3 3 3
6 5 5 6 6 7 7 8 6 6 7 8 8 7 6 4 5 5 3 1 4 5 6 5 6 9 9 7 6 6 6 5 6 8 10 6 6 6 4 3 3 4 3
7 6 8 8 8 8 9 8 8 8 8 8 8 8 6 5 5 5 4 3 3 5 6 3 4 7 10 11 9 10 9 10 10 8 6 7 8 8 5 4 4 4 3
2 4 3 4 7 10 9 9 9 9 9 9 8 8 8 7 5 5 4 4 3 1 4 2 3 9 7 8 10 10 10 12 11 12 8 7 6 5 5 6 6 4 5
Wind_Direction
290 290 322 318 312 294 322 306 267 306 311 334 332 340 357 11 5 15 3 349 53 31 65 10 16 49 57 76 54 54 65 111 112 25 84 68 116 158 131 177 209 215 236
258 313 272 290 287 307 282 266 261 257 275 324 346 360 358 14 3 7 1 8 6 48 22 46 15 33 33 53 70 50 66 68 114 113 33 37 66 206 210 200 214 214 211
264 250 257 280 293 275 247 235 256 285 323 357 330 5 347 13 345 356 10 21 28 47 49 62 46 45 45 36 47 60 87 77 63 108 114 65 196 160 208 263 252 250 246
275 273 276 267 267 277 255 247 248 272 282 313 340 347 53 20 7 4 14 31 31 51 42 58 64 76 82 69 60 56 61 88 93 94 100 152 165 309 123 203 292 255 265
274 278 290 264 245 269 271 249 267 309 293 299 97 35 2 22 18 8 24 23 30 358 15 47 39 40 69 88 96 68 85 83 101 90 97 88 66 80 175 226 249 323 297
286 288 294 282 264 258 253 273 242 288 281 304 244 179 250 307 322 355 23 6 12 13 321 290 278 8 47 60 59 146 149 134 116 116 112 146 223 188 172 172 141 40 315
273 275 290 289 271 302 241 222 240 262 265 285 316 169 229 246 266 308 355 0 350 339 319 317 289 36 36 28 21 33 207 194 139 155 154 204 204 215 154 110 212 198 239
275 275 274 276 265 275 268 158 234 246 256 256 230 199 222 248 239 254 324 341 342 321 289 231 213 212 9 45 21 58 63 161 202 189 187 234 226 202 174 175 189 240 291
253 266 272 290 251 260 269 251 226 213 244 247 258 222 219 243 230 227 230 348 329 352 339 246 193 202 268 44 89 52 11 338 350 233 252 257 253 214 167 106 319 77 323
263 254 258 270 245 260 267 238 234 214 233 247 274 238 237 239 246 220 198 214 334 339 349 3 154 189 196 187 131 144 53 281 345 344 330 313 253 230 184 181 165 161 176
258 264 254 245 249 249 247 248 225 244 248 252 261 266 246 226 242 222 204 188 206 255 276 255 228 233 230 223 159 206 225 221 301 310 308 305 289 210 218 211 193 167 168
242 249 261 245 240 248 227 240 259 264 257 263 271 273 253 244 221 224 214 208 182 196 241 253 255 254 252 266 268 247 272 271 343 339 329 341 2 250 229 222 214 218 221
276 253 241 257 247 239 237 258 255 255 267 273 274 275 286 251 234 221 216 208 199 192 223 236 240 271 272 273 262 266 266 252 277 314 298 268 219 258 263 246 249 245 254
296 294 267 256 255 241 258 235 236 250 248 248 267 265 293 286 248 238 224 203 196 218 253 263 259 260 269 257 281 257 231 207 200 216 236 249 276 210 245 215 226 189 229
31 346 314 274 257 252 234 260 236 230 197 229 244 220 227 269 257 205 183 189 201 208 162 242 269 269 281 277 271 252 252 221 200 199 218 244 271 281 292 221 191 129 182
48 352 328 331 315 282 259 297 249 259 254 238 246 206 234 232 251 232 193 190 183 155 122 227 255 255 262 273 275 283 251 219 204 198 205 205 227 219 250 274 159 179 221
296 281 295 344 332 328 311 227 284 295 269 273 278 242 228 236 210 190 171 154 155 142 195 219 239 247 262 264 261 271 258 229 174 166 181 207 202 200 182 237 253 258 244
319 302 297 302 297 286 305 296 249 243 272 292 300 268 272 244 224 192 159 122 145 224 205 229 239 240 242 248 231 235 218 171 144 177 188 195 207 202 170 223 194 258 198
325 312 296 265 258 284 295 291 274 254 241 249 280 300 59 24 180 141 173 191 203 215 214 241 228 240 248 250 261 217 170 193 182 176 207 210 207 192 212 225 226 242 188
325 302 285 294 292 287 286 294 294 279 269 261 289 253 131 156 185 200 199 208 225 240 220 233 242 233 237 238 235 195 193 191 185 195 204 202 206 204 226 242 218 221 206
309 315 309 294 280 268 271 291 291 301 290 314 315 297 245 207 231 226 208 203 217 226 230 224 235 231 242 237 202 197 205 195 197 207 204 217 208 208 227 228 229 234 216
318 314 299 299 287 284 305 292 318 309 259 255 281 268 255 221 253 247 212 220 218 224 225 220 227 216 217 208 204 190 200 208 210 204 199 190 181 194 191 174 192 196 200
308 295 305 336 354 351 339 341 351 343 330 300 266 278 256 270 287 282 289 259 239 233 230 213 218 230 224 211 211 181 188 199 200 172 174 179 181 176 174 189 190 197 204
308 323 31 13 5 353 342 336 330 322 316 309 310 288 275 218 238 259 265 254 247 271 276 223 208 221 231 200 215 192 187 181 171 181 173 175 180 174 168 188 190 202 216
9 17 28 17 359 343 338 334 325 317 312 305 299 293 282 270 263 262 255 266 326 270 244 261 245 233 224 208 197 196 191 186 183 175 169 171 179 181 185 193 198 215 226
37 19 14 21 2 351 334 329 328 320 315 305 295 279 265 267 248 245 241 245 241 343 291 285 329 298 225 216 208 211 189 190 188 183 172 171 173 185 189 199 209 208 239